Watsonville, CA

6:59 PM PDT on October 19, 2019 (GMT -0700)
Watsonville Municipal

Weather History for KWVI - August, 2019

Change the Weather History Date:

Tuesday, August 6, 2019

  Actual Average Record
Temperature  
Mean Temperature 63 °F 63 °F  
Max Temperature 69 °F 73 °F 83 °F (2004)
Min Temperature 56 °F 53 °F 46 °F (2018)
Degree Days  
Heating Degree Days 2    
Month to date heating degree days 6  
Since 1 June heating degree days 144  
Since 1 July heating degree days 53  
Cooling Degree Days 0    
Month to date cooling degree days 3  
Year to date cooling degree days 57  
Since 1 June cooling degree days 57  
Growing Degree Days 12 (Base 50)    
Moisture  
Dew Point 55 °F    
Average Humidity 78    
Maximum Humidity 93    
Minimum Humidity 63    
Precipitation  
Precipitation 0.00 in - 0.11 in (2015)
Month to date precipitation T  
Year to date precipitation 22.76  
Sea Level Pressure  
Sea Level Pressure 29.95 in    
Wind  
Wind Speed 5 mph (South)    
Max Wind Speed 12 mph    
Max Gust Speed 17 mph    
Visibility 8 miles    
Events      
T = Trace of Precipitation, MM = Missing Value Source: NWS Daily Summary

Daily Weather History Graph

Daily Weather History Graph

Search for Another Location

Airport or City:

Astronomy

Aug. 06, 2019 Rise Set
Actual Time 6:16 AM PDT 8:09 PM PDT
Civil Twilight 5:48 AM PDT 8:37 PM PDT
Nautical Twilight 5:13 AM PDT 9:11 PM PDT
Astronomical Twilight 4:37 AM PDT 9:48 PM PDT
Moon 12:38 PM PDT (8/6) No Moon Set
Length of Visible Light 14h 49m
Length of Day
13h 52m
Waxing Crescent, 40% of the Moon is Illuminated
Aug 6
Waxing Crescent
Aug 7
First Quarter
Aug 15
Full
Aug 23
Last Quarter
Aug 30
New

Hourly Weather History & Observations

Time (PDT) Temp. Dew Point Humidity Pressure Visibility Wind Dir Wind Speed Gust Speed Precip Events Conditions
12:09 AM 59.0 °F 55.0 °F 87% 29.96 in 10.0 mi Calm Calm - N/A   Overcast
12:19 AM 59.0 °F 55.0 °F 87% 29.96 in 9.0 mi East 3.5 mph - N/A   Overcast
12:53 AM 57.9 °F 55.0 °F 90% 29.96 in 9.0 mi Calm Calm - N/A   Overcast
1:53 AM 57.9 °F 55.0 °F 90% 29.95 in 7.0 mi Calm Calm - N/A   Overcast
2:53 AM 57.9 °F 55.0 °F 90% 29.95 in 6.0 mi Calm Calm - N/A   Overcast
3:53 AM 57.0 °F 55.0 °F 93% 29.95 in 3.0 mi ESE 4.6 mph - N/A   Overcast
4:53 AM 57.0 °F 55.0 °F 93% 29.94 in 2.5 mi Calm Calm - N/A   Overcast
5:05 AM 57.0 °F 55.0 °F 93% 29.94 in 4.0 mi Calm Calm - N/A   Overcast
5:42 AM 57.0 °F 55.0 °F 93% 29.94 in 2.0 mi East 3.5 mph - N/A   Overcast
5:53 AM 57.0 °F 55.0 °F 93% 29.94 in 2.0 mi ESE 3.5 mph - N/A   Overcast
6:16 AM 57.0 °F 54.0 °F 89% 29.95 in 5.0 mi East 3.5 mph - N/A   Overcast
6:53 AM 57.0 °F 54.0 °F 89% 29.96 in 4.0 mi Calm Calm - N/A   Overcast
7:53 AM 57.0 °F 55.0 °F 93% 29.96 in 5.0 mi Calm Calm - N/A   Overcast
8:53 AM 59.0 °F 55.0 °F 87% 29.97 in 9.0 mi North - - N/A   Overcast
9:53 AM 59.0 °F 55.0 °F 87% 29.98 in 9.0 mi North - - N/A   Overcast
10:08 AM 60.1 °F 55.0 °F 83% 29.98 in 9.0 mi North - - N/A   Overcast
10:53 AM 61.0 °F 55.9 °F 83% 29.99 in 10.0 mi North - - N/A   Overcast
11:53 AM 62.1 °F 55.9 °F 80% 29.98 in - SSW 5.8 mph - N/A   Unknown
12:36 PM 66.9 °F 55.9 °F 68% 29.97 in 10.0 mi Variable 5.8 mph - N/A   Overcast
12:53 PM 66.9 °F 55.9 °F 68% 29.97 in 10.0 mi SW 8.1 mph - N/A   Mostly Cloudy
1:02 PM 66.9 °F 55.9 °F 68% 29.97 in 10.0 mi SW 5.8 mph - N/A   Scattered Clouds
1:53 PM 68.0 °F 55.9 °F 65% 29.96 in 10.0 mi SW 10.4 mph - N/A   Partly Cloudy
2:53 PM 68.0 °F 55.9 °F 65% 29.96 in 10.0 mi SW 9.2 mph - N/A   Clear
3:27 PM 66.0 °F 55.9 °F 70% 29.95 in 10.0 mi WSW 6.9 mph - N/A   Partly Cloudy
3:53 PM 66.9 °F 55.9 °F 68% 29.94 in 10.0 mi SSW 10.4 mph - N/A   Clear
4:21 PM 64.9 °F 55.0 °F 70% 29.94 in 10.0 mi SW 9.2 mph - N/A   Scattered Clouds
4:32 PM 64.0 °F 55.0 °F 73% 29.94 in 10.0 mi SW 8.1 mph - N/A   Mostly Cloudy
4:53 PM 63.0 °F 55.0 °F 75% 29.94 in 10.0 mi SW 8.1 mph - N/A   Mostly Cloudy
5:20 PM 60.1 °F 55.0 °F 83% 29.94 in 7.0 mi WSW 6.9 mph - N/A   Overcast
5:53 PM 59.0 °F 55.0 °F 87% 29.93 in 8.0 mi WSW 4.6 mph - N/A   Overcast
6:44 PM 59.0 °F 55.0 °F 87% 29.94 in 7.0 mi SSW 6.9 mph - N/A   Overcast
6:53 PM 57.9 °F 54.0 °F 87% 29.94 in 7.0 mi South 6.9 mph - N/A   Overcast
7:53 PM 57.9 °F 54.0 °F 87% 29.94 in 4.0 mi ESE 6.9 mph - N/A   Overcast
8:53 PM 57.9 °F 55.0 °F 90% 29.95 in 6.0 mi SE 8.1 mph - N/A   Overcast
9:53 PM 57.9 °F 55.0 °F 90% 29.97 in 7.0 mi SE 5.8 mph - N/A   Overcast
10:53 PM 57.9 °F 54.0 °F 87% 29.96 in 10.0 mi East 4.6 mph - N/A   Overcast
11:53 PM 59.0 °F 55.0 °F 87% 29.96 in 10.0 mi East 5.8 mph - N/A   Overcast